Flag for Norway Weather past 2 weeks in Larvik, Norway

Now
43 °F

Quite cool.


Feels Like: 39 °F
Forecast: 46 / 59 °F
Wind: 7 mph from North

Location: Torp


UV Index: 0 (Low)

Visibility: N/A


Pressure: 30.12 "Hg

Humidity: 81%

Dew point: 37 °F

Location of LarvikLocation

Historic Weather in Larvik

°F

Larvik temperature yesterday

Maximum temperature yesterday: 63 °F (at 5:20 PM)
Minimum temperature yesterday: 34 °F (at 4:20 AM)
Average temperature yesterday: 49 °F

Past Weeks' High & Low Weather Summary

 TemperatureHumidityPressure
High63 °F (Apr 20, 5:20 PM)100% (Apr 6, 4:20 AM)30.33 "Hg (Apr 6, 4:20 AM)
Low34 °F (Apr 14, 5:50 AM)26% (Apr 15, 5:20 PM)29.39 "Hg (Apr 13, 4:50 AM)
Average44 °F75%29.87 "Hg
* Reported Apr 6 4:20 AM — Apr 21 4:20 AM, Larvik, Weather by CustomWeather, © 2014

Note: Actual official high and low records may vary slightly from our data, if they occured in-between our weather recording intervals... More about our weather records

Advertising

Historic Weather Conditions — Data for Previous 24 hours

 ConditionsComfort  
Time TempWeatherWind HumidityBarometerVisibility
4:20 AM
Apr 21
43 °FQuite cool.8 mph81%30.12 "HgN/A
3:50 AM45 °FQuite cool.6 mph76%30.12 "HgN/A
3:20 AM45 °FQuite cool.5 mph81%30.15 "HgN/A
2:50 AM46 °FCool.5 mph76%30.15 "HgN/A
2:20 AM45 °FQuite cool.5 mph81%30.15 "HgN/A
1:50 AM48 °FCool.3 mph71%30.15 "HgN/A
1:20 AM48 °FCool.5 mph71%30.15 "HgN/A
12:50 AM50 °FCool.5 mph67%30.15 "HgN/A
12:20 AM50 °FCool.3 mph67%30.15 "HgN/A
11:50 PM
Apr 20
52 °FCool.5 mph62%30.15 "HgN/A
10:50 PM52 °FClear.3 mph67%30.15 "Hg10 mi
10:20 PM52 °FClear.3 mph62%30.15 "Hg10 mi
9:50 PM55 °FClear.2 mph55%30.15 "Hg10 mi
9:20 PM55 °FSunny.2 mph55%30.12 "Hg10 mi
8:50 PM57 °FSunny.2 mph51%30.12 "Hg10 mi
8:20 PM59 °FSunny.1 mph48%30.12 "Hg10 mi
7:50 PM61 °FSunny.No wind42%30.12 "Hg10 mi
7:20 PM63 °FSunny.1 mph39%30.12 "Hg10 mi
6:50 PM63 °FSunny.2 mph39%30.12 "Hg10 mi
6:20 PM63 °FSunny.2 mph39%30.12 "Hg10 mi
5:50 PM63 °FPassing clouds.3 mph42%30.15 "HgN/A
5:20 PM63 °FPassing clouds.7 mph39%30.15 "HgN/A
4:50 PM61 °FPassing clouds.7 mph45%30.15 "HgN/A
4:20 PM61 °FPassing clouds.7 mph45%30.15 "HgN/A
3:50 PM61 °FPassing clouds.7 mph45%30.18 "HgN/A
3:20 PM59 °FPassing clouds.7 mph48%30.18 "HgN/A
2:50 PM59 °FPassing clouds.6 mph51%30.18 "HgN/A
2:20 PM59 °FPassing clouds.6 mph51%30.18 "HgN/A
1:50 PM59 °FPassing clouds.8 mph51%30.18 "HgN/A
1:20 PM57 °FPassing clouds.6 mph55%30.21 "HgN/A
12:50 PM57 °FPassing clouds.6 mph59%30.21 "HgN/A
12:20 PM55 °FPassing clouds.8 mph59%30.21 "HgN/A
11:50 AM55 °FSunny.8 mph59%30.21 "Hg10 mi
11:20 AM54 °FSunny.8 mph63%30.21 "Hg10 mi
10:50 AM52 °FSunny.9 mph67%30.21 "Hg10 mi
10:20 AM50 °FSunny.10 mph71%30.21 "Hg10 mi
9:50 AM46 °FSunny.12 mph76%30.21 "Hg10 mi
9:20 AM45 °FSunny.10 mph81%30.21 "Hg10 mi
8:50 AM43 °FSunny.10 mph87%30.21 "Hg10 mi
8:20 AM41 °FSunny.8 mph93%30.24 "Hg10 mi
7:50 AM37 °FSunny.7 mph100%30.24 "Hg10 mi
7:20 AM36 °FSunny.7 mph100%30.21 "Hg10 mi
6:50 AM34 °FChilly.6 mph100%30.21 "HgN/A
6:20 AM34 °FChilly.6 mph100%30.21 "Hg1 mi
5:50 AM34 °FFog.6 mph100%30.21 "Hg0 mi
5:20 AM34 °FFog.7 mph100%30.24 "Hg0 mi
Weather by CustomWeather, © 2014

See weather overview